Greenville, ME

5:54 AM EST on December 09, 2019 (GMT -0500)
Greenville

Weather History for KGNR - August, 2019

Change the Weather History Date:

Saturday, August 3, 2019

  Actual Average (KMLT) Record (KMLT)
Temperature  
Mean Temperature 70 °F -  
Max Temperature 82 °F 79 °F 100 °F (1975)
Min Temperature 60 °F 58 °F 39 °F (1921)
Cooling Degree Days 6    
Growing Degree Days 20 (Base 50)    
Moisture  
Dew Point 52 °F    
Average Humidity 57    
Maximum Humidity 87    
Minimum Humidity 34    
Precipitation  
Precipitation 0.00 in - - ()
Sea Level Pressure  
Sea Level Pressure 29.94 in    
Wind  
Wind Speed 2 mph (NW)    
Max Wind Speed 10 mph    
Max Gust Speed -    
Averages and records for this station are not official NWS values.
T = Trace of Precipitation, MM = Missing Value Source: NWS Daily Summary

Daily Weather History Graph

Daily Weather History Graph

Search for Another Location

Airport or City:

Astronomy

Aug. 03, 2019 Rise Set
Actual Time 5:24 AM EDT 8:03 PM EDT
Civil Twilight 4:50 AM EDT 8:37 PM EDT
Nautical Twilight 4:07 AM EDT 9:20 PM EDT
Astronomical Twilight 3:18 AM EDT 10:09 PM EDT
Moon 8:19 AM EDT (8/3) 9:58 PM EDT (8/3)
Length of Visible Light 15h 47m
Length of Day
14h 39m
Waxing Crescent, 10% of the Moon is Illuminated
Aug 3
Waxing Crescent
Aug 7
First Quarter
Aug 15
Full
Aug 23
Last Quarter
Aug 30
New

Hourly Weather History & Observations

Time (EDT) Temp. Dew Point Humidity Pressure Visibility Wind Dir Wind Speed Gust Speed Precip Events Conditions
12:56 AM 60.1 °F 50.0 °F 69% 30.05 in - Calm Calm - N/A   Unknown
1:56 AM 60.1 °F 50.0 °F 69% 30.04 in - Calm Calm - N/A   Unknown
2:56 AM 60.1 °F 50.0 °F 69% 30.04 in - Calm Calm - N/A   Unknown
3:56 AM 62.1 °F 50.0 °F 65% 30.02 in - Calm Calm - N/A   Unknown
4:56 AM 60.1 °F 50.0 °F 69% 30.02 in - Calm Calm - N/A   Unknown
5:56 AM 60.1 °F 50.0 °F 69% 30.02 in - Calm Calm - N/A   Unknown
6:56 AM 64.9 °F 52.0 °F 63% 30.01 in - Calm Calm - N/A   Unknown
7:56 AM 66.0 °F 52.0 °F 60% 30.01 in - Calm Calm - N/A   Unknown
8:56 AM 71.1 °F 53.1 °F 53% 29.99 in - Variable 3.5 mph - N/A   Unknown
9:56 AM 75.0 °F 53.1 °F 46% 29.98 in - Variable 5.8 mph - N/A   Unknown
10:56 AM 77.0 °F 50.0 °F 39% 29.95 in - Calm Calm - N/A   Unknown
11:56 AM 79.0 °F 51.1 °F 38% 29.92 in - Variable 5.8 mph - N/A   Unknown
12:56 PM 80.1 °F 50.0 °F 35% 29.90 in - Variable 3.5 mph - N/A   Unknown
1:56 PM 81.0 °F 50.0 °F 34% 29.88 in - Variable 5.8 mph - N/A   Unknown
2:56 PM 79.0 °F 50.0 °F 36% 29.86 in - North - - N/A   Unknown
4:56 PM 78.1 °F 48.0 °F 35% 29.84 in - Variable 3.5 mph - N/A   Unknown
5:56 PM 75.9 °F 54.0 °F 46% 29.84 in - NW 8.1 mph - N/A   Unknown
6:56 PM 73.0 °F 54.0 °F 51% 29.85 in - NW 10.4 mph - N/A   Unknown
7:56 PM 71.1 °F 55.0 °F 57% 29.87 in - NNW 10.4 mph - N/A   Unknown
9:56 PM 63.0 °F 57.9 °F 84% 29.87 in - Variable 3.5 mph - N/A   Unknown
10:56 PM 62.1 °F 57.9 °F 86% 29.87 in - WNW 4.6 mph - N/A   Unknown
11:56 PM 61.0 °F 57.0 °F 87% 29.87 in - WNW 6.9 mph - N/A   Unknown